Volver al catálogo

IUS R/B(1)

ActivoHEO
NORAD 26882·ROCKET BODY·🇺🇸 United States

Lanzado Aug 6, 2001 desde Cape Canaveral Space Force Station

Loading…

Próximos Pases (próximas 24 horas)

TLE

ActualizadoSource: Space-Track

Época: Sep 11, 2026, 19:33 UTC

1 26882U 01033C   26254.81510080  .00001073  00000-0  76273-3 0  9994
2 26882  28.5050 329.5484 7070088 330.7951   3.8714  2.51526373 64738

Sigue IUS R/B(1) en tiempo real con AllMySat

Download on the App Store